Search for airport 
image banner adimage banner adimage banner ad
image banner ad

NV15 - Carson-Tahoe Rgnl Medical Center

Located in Carson City, United States

ICAO - NV15, IATA -

Data provided by Airmate  

General information

Coordinates: N39°12'8" W119°47'5"
Elevation is 4850 feet MSL.
 
View others Airports in Nevada

Operational data

Special qualification required
Current time UTC:
Current local time:
Weather at : KCXP - Carson ( 5 km )
METAR: KCXP 130135Z AUTO 26010G15KT 10SM CLR 28/02 A2998 RMK AO2
TAF: KCXP 122320Z 1300/1324 26012G18KT P6SM FEW090 FM130300 VRB04KT P6SM SKC FM132100 25013G22KT P6SM FEW090
View NOTAMs / SUP AIP / TFR affecting this airport [VIEW]
Communications frequencies: [VIEW]

Runways:

Airport contact information

Address: Carson City United States

Satellite view of NV15